Location: Ferchesar
(52.6477°N, 12.4298°E)
Time: 07:08:21
(UTC+02:00)

Transit 4A - Pass Details

Date: 07 March 2021
Orbit: 869 x 976 km, 66.8° (Epoch: 12 April)

Event Time Altitude Azimuth Distance (km) Brightness Sun altitude
Rises 09:15:41 0° 191° (S) 3,657 11.4 20.2°
Reaches altitude 10° 09:18:23 10° 184° (S) 2,708 10.9 20.5°
Maximum altitude 09:24:16 42° 116° (ESE) 1,347 10.3 21.2°
Drops below altitude 10° 09:30:04 10° 48° (NE) 2,673 10.4 21.9°
Sets 09:32:42 0° 42° (NE) 3,606 11.0 22.1°
